Time,TemperatureF,DewpointF,PressureIn,WindDirection,WindDirectionDegrees,WindSpeedMPH,WindSpeedGustMPH,Humidity,HourlyPrecipIn,Conditions,Clouds,dailyrainin,SoftwareType,DateUTC
2013-08-18 00:00:00,77.6,74.1,29.99,SSW,200,0.0,0.0,89,0.02,,CLR,0.25,VWS V14.01,2013-08-18 04:00:00,
2013-08-18 00:01:00,77.0,74.2,30.00,SSW,200,0.0,0.0,91,0.00,,-RA,0.25,VWS V14.01,2013-08-18 04:01:00,
2013-08-18 00:06:00,77.0,74.2,30.00,SSW,200,0.0,0.0,91,0.00,,-RA,0.00,VWS V14.01,2013-08-18 04:06:00,
2013-08-18 00:11:00,77.0,74.2,30.00,SSW,200,0.0,0.0,91,0.00,,-RA,0.00,VWS V14.01,2013-08-18 04:11:00,
2013-08-18 00:16:00,77.0,74.2,30.00,SSW,200,0.0,0.0,91,0.00,,-RA,0.00,VWS V14.01,2013-08-18 04:16:00,
2013-08-18 00:21:00,77.0,74.2,30.00,SSW,199,0.0,0.0,91,0.00,,-RA,0.00,VWS V14.01,2013-08-18 04:21:00,
2013-08-18 00:26:00,77.2,74.4,30.00,SSW,198,0.0,0.0,91,0.00,,-RA,0.00,VWS V14.01,2013-08-18 04:26:00,
2013-08-18 00:30:00,77.2,74.0,30.00,SSW,199,0.0,0.0,90,0.02,,CLR,0.25,VWS V14.01,2013-08-18 04:30:00,
2013-08-18 00:31:00,77.2,74.7,30.00,SSW,196,0.0,0.0,92,0.00,,-RA,0.00,VWS V14.01,2013-08-18 04:31:00,
2013-08-18 00:36:00,77.4,74.9,30.00,SSW,196,0.0,0.0,92,0.00,,-RA,0.00,VWS V14.01,2013-08-18 04:36:00,
2013-08-18 00:41:00,77.4,74.9,30.00,SSW,196,0.0,0.0,92,0.00,,-RA,0.00,VWS V14.01,2013-08-18 04:41:00,
2013-08-18 00:46:00,77.6,75.1,30.00,South,185,0.0,0.0,92,0.00,,-RA,0.00,VWS V14.01,2013-08-18 04:46:00,
2013-08-18 00:51:00,77.6,75.1,30.00,South,185,0.0,0.0,92,0.00,,-RA,0.00,VWS V14.01,2013-08-18 04:51:00,
2013-08-18 00:56:00,77.6,75.1,30.00,South,181,0.0,0.0,92,0.00,,-RA,0.00,VWS V14.01,2013-08-18 04:56:00,
2013-08-18 01:00:00,77.0,74.2,30.00,SSW,200,0.0,0.0,91,0.00,,CLR,0.25,VWS V14.01,2013-08-18 05:00:00,
2013-08-18 01:01:00,77.7,75.2,30.00,South,175,0.0,0.0,92,0.00,,FEW048,0.00,VWS V14.01,2013-08-18 05:01:00,
2013-08-18 01:06:00,77.7,75.2,30.00,South,175,0.0,0.0,92,0.00,,FEW048,0.00,VWS V14.01,2013-08-18 05:06:00,
2013-08-18 01:11:00,77.9,75.4,30.00,South,175,0.0,0.0,92,0.00,,FEW048,0.00,VWS V14.01,2013-08-18 05:11:00,
2013-08-18 01:16:00,77.9,75.4,30.00,South,175,0.0,0.0,92,0.00,,FEW048,0.00,VWS V14.01,2013-08-18 05:16:00,
2013-08-18 01:21:00,78.1,75.6,30.00,ESE,113,0.0,6.0,92,0.00,,FEW048,0.00,VWS V14.01,2013-08-18 05:21:00,
2013-08-18 01:26:00,78.1,75.6,30.00,ESE,113,0.0,6.0,92,0.00,,FEW048,0.00,VWS V14.01,2013-08-18 05:26:00,
2013-08-18 01:30:00,77.2,74.7,30.00,SSW,196,0.0,0.0,92,0.00,,CLR,0.00,VWS V14.01,2013-08-18 05:30:00,
2013-08-18 01:31:00,78.1,75.6,29.99,ESE,113,0.0,6.0,92,0.00,,FEW048,0.00,VWS V14.01,2013-08-18 05:31:00,
2013-08-18 01:36:00,78.1,75.6,29.99,ESE,113,0.0,0.0,92,0.00,,FEW048,0.00,VWS V14.01,2013-08-18 05:36:00,
2013-08-18 01:41:00,78.1,75.6,29.99,ESE,113,0.0,0.0,92,0.00,,FEW048,0.00,VWS V14.01,2013-08-18 05:41:00,
2013-08-18 01:46:00,78.1,75.6,29.99,ESE,113,0.0,0.0,92,0.00,,FEW048,0.00,VWS V14.01,2013-08-18 05:46:00,
2013-08-18 01:51:00,77.9,75.4,29.99,ESE,113,0.0,0.0,92,0.00,,FEW048,0.00,VWS V14.01,2013-08-18 05:51:00,
2013-08-18 01:56:00,77.9,75.4,29.99,ESE,113,0.0,0.0,92,0.00,,FEW048,0.00,VWS V14.01,2013-08-18 05:56:00,
2013-08-18 02:00:00,77.7,75.2,30.00,South,175,0.0,0.0,92,0.00,,CLR,0.00,VWS V14.01,2013-08-18 06:00:00,
2013-08-18 02:01:00,78.1,75.6,29.99,ESE,113,0.0,0.0,92,0.00,,SCT038,0.00,VWS V14.01,2013-08-18 06:01:00,
2013-08-18 02:06:00,78.1,75.6,29.99,ESE,113,0.0,0.0,92,0.00,,SCT038,0.00,VWS V14.01,2013-08-18 06:06:00,
2013-08-18 02:11:00,78.1,75.6,29.99,ESE,113,0.0,0.0,92,0.00,,SCT038,0.00,VWS V14.01,2013-08-18 06:11:00,
2013-08-18 02:16:00,78.1,75.6,29.99,ESE,113,0.0,0.0,92,0.00,,SCT038,0.00,VWS V14.01,2013-08-18 06:16:00,
2013-08-18 02:21:00,78.1,75.6,29.99,ESE,113,0.0,0.0,92,0.00,,SCT038,0.00,VWS V14.01,2013-08-18 06:21:00,
2013-08-18 02:26:00,78.3,75.8,29.99,ESE,113,0.0,0.0,92,0.00,,SCT038,0.00,VWS V14.01,2013-08-18 06:26:00,
2013-08-18 02:30:00,78.1,75.6,29.99,ESE,113,0.0,6.0,92,0.00,,CLR,0.00,VWS V14.01,2013-08-18 06:30:00,
2013-08-18 02:31:00,78.3,75.8,29.98,ESE,113,0.0,0.0,92,0.00,,SCT038,0.00,VWS V14.01,2013-08-18 06:31:00,
2013-08-18 02:36:00,78.3,75.8,29.98,ESE,113,0.0,0.0,92,0.00,,SCT038,0.00,VWS V14.01,2013-08-18 06:36:00,
2013-08-18 02:41:00,78.3,75.8,29.98,ESE,113,0.0,0.0,92,0.00,,SCT038,0.00,VWS V14.01,2013-08-18 06:41:00,
2013-08-18 02:46:00,78.3,75.8,29.97,ESE,113,0.0,0.0,92,0.00,,SCT038,0.00,VWS V14.01,2013-08-18 06:46:00,
2013-08-18 02:51:00,78.1,75.6,29.97,ESE,113,0.0,0.0,92,0.00,,SCT038,0.00,VWS V14.01,2013-08-18 06:51:00,
2013-08-18 02:56:00,78.1,75.6,29.97,ESE,113,0.0,0.0,92,0.00,,SCT038,0.00,VWS V14.01,2013-08-18 06:56:00,
2013-08-18 03:00:00,78.1,75.6,29.99,ESE,113,0.0,0.0,92,0.00,,CLR,0.00,VWS V14.01,2013-08-18 07:00:00,
2013-08-18 03:01:00,78.1,75.6,29.97,ESE,113,0.0,0.0,92,0.00,,SCT041,0.00,VWS V14.01,2013-08-18 07:01:00,
2013-08-18 03:06:00,78.1,75.6,29.97,ESE,113,0.0,0.0,92,0.00,,SCT041,0.00,VWS V14.01,2013-08-18 07:06:00,
2013-08-18 03:11:00,78.1,75.6,29.97,ESE,113,0.0,0.0,92,0.00,,SCT041,0.00,VWS V14.01,2013-08-18 07:11:00,
2013-08-18 03:16:00,78.1,75.6,29.96,ESE,113,0.0,0.0,92,0.00,,SCT041,0.00,VWS V14.01,2013-08-18 07:16:00,
2013-08-18 03:21:00,78.1,75.6,29.96,ESE,113,0.0,0.0,92,0.00,,SCT041,0.00,VWS V14.01,2013-08-18 07:21:00,
2013-08-18 03:26:00,78.3,75.8,29.96,ESE,110,0.0,0.0,92,0.00,,SCT041,0.00,VWS V14.01,2013-08-18 07:26:00,
2013-08-18 03:30:00,78.3,75.8,29.98,ESE,113,0.0,0.0,92,0.00,,CLR,0.00,VWS V14.01,2013-08-18 07:30:00,
2013-08-18 03:31:00,78.3,75.8,29.96,ESE,104,0.0,0.0,92,0.00,,SCT041,0.00,VWS V14.01,2013-08-18 07:31:00,
2013-08-18 03:36:00,78.3,75.8,29.96,ESE,104,0.0,0.0,92,0.00,,SCT041,0.00,VWS V14.01,2013-08-18 07:36:00,
2013-08-18 03:41:00,78.3,75.8,29.96,ESE,104,0.0,0.0,92,0.00,,SCT041,0.00,VWS V14.01,2013-08-18 07:41:00,
2013-08-18 03:46:00,78.5,76.0,29.96,ESE,104,0.0,0.0,92,0.00,,SCT041,0.00,VWS V14.01,2013-08-18 07:46:00,
2013-08-18 03:51:00,78.5,76.0,29.96,ESE,103,0.0,0.0,92,0.00,,SCT041,0.00,VWS V14.01,2013-08-18 07:51:00,
2013-08-18 03:56:00,78.5,76.0,29.96,ESE,103,0.0,0.0,92,0.00,,SCT041,0.00,VWS V14.01,2013-08-18 07:56:00,
2013-08-18 04:00:00,78.1,75.6,29.97,ESE,113,0.0,0.0,92,0.00,,CLR,0.00,VWS V14.01,2013-08-18 08:00:00,
2013-08-18 04:01:00,78.5,76.0,29.95,ESE,110,3.0,5.0,92,0.00,,FEW060,0.00,VWS V14.01,2013-08-18 08:01:00,
2013-08-18 04:06:00,78.5,76.0,29.95,ESE,109,0.0,3.0,92,0.00,,FEW060,0.00,VWS V14.01,2013-08-18 08:06:00,
2013-08-18 04:11:00,78.5,76.0,29.95,ESE,103,0.0,3.0,92,0.00,,FEW060,0.00,VWS V14.01,2013-08-18 08:11:00,
2013-08-18 04:16:00,78.5,76.0,29.95,ESE,103,0.0,3.0,92,0.00,,FEW060,0.00,VWS V14.01,2013-08-18 08:16:00,
2013-08-18 04:21:00,78.5,76.0,29.95,ESE,103,0.0,3.0,92,0.00,,FEW060,0.00,VWS V14.01,2013-08-18 08:21:00,
2013-08-18 04:26:00,78.5,76.0,29.95,ESE,104,0.0,3.0,92,0.00,,FEW060,0.00,VWS V14.01,2013-08-18 08:26:00,
2013-08-18 04:30:00,78.3,75.8,29.96,ESE,104,0.0,0.0,92,0.00,,CLR,0.00,VWS V14.01,2013-08-18 08:30:00,
2013-08-18 04:31:00,78.5,76.0,29.95,ESE,103,0.0,3.0,92,0.00,,FEW060,0.00,VWS V14.01,2013-08-18 08:31:00,
2013-08-18 04:36:00,78.5,76.0,29.95,ESE,109,0.0,5.0,92,0.00,,FEW060,0.00,VWS V14.01,2013-08-18 08:36:00,
2013-08-18 04:41:00,78.5,76.0,29.95,ESE,103,0.0,5.0,92,0.00,,FEW060,0.00,VWS V14.01,2013-08-18 08:41:00,
2013-08-18 04:46:00,78.5,76.0,29.96,ESE,103,0.0,5.0,92,0.00,,FEW060,0.00,VWS V14.01,2013-08-18 08:46:00,
2013-08-18 04:51:00,78.5,76.0,29.96,ESE,103,0.0,5.0,92,0.00,,FEW060,0.00,VWS V14.01,2013-08-18 08:51:00,
2013-08-18 04:56:00,78.5,76.0,29.96,ESE,103,0.0,5.0,92,0.00,,FEW060,0.00,VWS V14.01,2013-08-18 08:56:00,
2013-08-18 05:00:00,78.5,76.0,29.95,ESE,110,3.0,5.0,92,0.00,,CLR,0.00,VWS V14.01,2013-08-18 09:00:00,
2013-08-18 05:01:00,78.5,76.0,29.96,ESE,103,0.0,5.0,92,0.00,,CLR,0.00,VWS V14.01,2013-08-18 09:01:00,
2013-08-18 05:06:00,78.5,76.0,29.96,ESE,103,0.0,0.0,92,0.00,,CLR,0.00,VWS V14.01,2013-08-18 09:06:00,
2013-08-18 05:11:00,78.5,76.0,29.96,ESE,103,0.0,0.0,92,0.00,,CLR,0.00,VWS V14.01,2013-08-18 09:11:00,
2013-08-18 05:16:00,78.5,76.0,29.95,ESE,103,0.0,0.0,92,0.00,,CLR,0.00,VWS V14.01,2013-08-18 09:16:00,
2013-08-18 05:21:00,78.5,76.0,29.95,ESE,103,0.0,0.0,92,0.00,,CLR,0.00,VWS V14.01,2013-08-18 09:21:00,
2013-08-18 05:26:00,78.5,76.0,29.95,ESE,103,0.0,0.0,92,0.00,,CLR,0.00,VWS V14.01,2013-08-18 09:26:00,
2013-08-18 05:30:00,78.5,76.0,29.95,ESE,103,0.0,3.0,92,0.00,,CLR,0.00,VWS V14.01,2013-08-18 09:30:00,
2013-08-18 05:31:00,78.5,76.0,29.95,ESE,103,0.0,0.0,92,0.00,,CLR,0.00,VWS V14.01,2013-08-18 09:31:00,
2013-08-18 05:36:00,78.5,76.0,29.95,ESE,103,0.0,0.0,92,0.00,,CLR,0.00,VWS V14.01,2013-08-18 09:36:00,
2013-08-18 05:41:00,78.5,76.0,29.95,ESE,103,0.0,0.0,92,0.00,,CLR,0.00,VWS V14.01,2013-08-18 09:41:00,
2013-08-18 05:46:00,78.5,76.0,29.96,ESE,103,0.0,1.0,92,0.00,,CLR,0.00,VWS V14.01,2013-08-18 09:46:00,
2013-08-18 05:51:00,78.5,76.0,29.96,ESE,103,0.0,1.0,92,0.00,,CLR,0.00,VWS V14.01,2013-08-18 09:51:00,
2013-08-18 05:56:00,78.5,76.0,29.96,ESE,103,0.0,1.0,92,0.00,,CLR,0.00,VWS V14.01,2013-08-18 09:56:00,
2013-08-18 06:00:00,78.5,76.0,29.96,ESE,103,0.0,5.0,92,0.00,,CLR,0.00,VWS V14.01,2013-08-18 10:00:00,
2013-08-18 06:01:00,78.5,76.0,29.96,ESE,103,0.0,1.0,92,0.00,,CLR,0.00,VWS V14.01,2013-08-18 10:01:00,
2013-08-18 06:06:00,78.5,76.0,29.96,ESE,103,0.0,0.0,92,0.00,,CLR,0.00,VWS V14.01,2013-08-18 10:06:00,
2013-08-18 06:11:00,78.5,76.0,29.96,ESE,103,0.0,0.0,92,0.00,,CLR,0.00,VWS V14.01,2013-08-18 10:11:00,
2013-08-18 06:16:00,78.5,76.0,29.96,ESE,103,0.0,0.0,92,0.00,,CLR,0.00,VWS V14.01,2013-08-18 10:16:00,
2013-08-18 06:21:00,78.5,76.0,29.96,ESE,103,0.0,0.0,92,0.00,,CLR,0.00,VWS V14.01,2013-08-18 10:21:00,
2013-08-18 06:26:00,78.5,76.0,29.96,ESE,103,0.0,0.0,92,0.00,,CLR,0.00,VWS V14.01,2013-08-18 10:26:00,
2013-08-18 06:30:00,78.5,76.0,29.97,ESE,103,0.0,0.0,92,0.00,,CLR,0.00,VWS V14.01,2013-08-18 10:30:00,
2013-08-18 06:36:00,78.5,76.0,29.97,ESE,103,0.0,0.0,92,0.00,,CLR,0.00,VWS V14.01,2013-08-18 10:36:00,
2013-08-18 06:41:00,78.5,76.0,29.97,ESE,103,0.0,0.0,92,0.00,,CLR,0.00,VWS V14.01,2013-08-18 10:41:00,
2013-08-18 06:46:00,78.5,76.0,29.97,ESE,103,0.0,0.0,92,0.00,,CLR,0.00,VWS V14.01,2013-08-18 10:46:00,
2013-08-18 06:51:00,78.5,76.0,29.97,ESE,103,0.0,0.0,92,0.00,,CLR,0.00,VWS V14.01,2013-08-18 10:51:00,
2013-08-18 06:56:00,78.5,76.3,29.97,ESE,103,0.0,0.0,93,0.00,,CLR,0.00,VWS V14.01,2013-08-18 10:56:00,
2013-08-18 07:00:00,78.5,76.3,29.97,ESE,103,0.0,0.0,93,0.00,,CLR,0.00,VWS V14.01,2013-08-18 11:00:00,
2013-08-18 07:05:00,78.5,76.3,29.97,ESE,103,0.0,0.0,93,0.00,,CLR,0.00,VWS V14.01,2013-08-18 11:05:00,
2013-08-18 07:10:00,78.3,76.1,29.97,ESE,103,0.0,0.0,93,0.00,,CLR,0.00,VWS V14.01,2013-08-18 11:10:00,
2013-08-18 07:16:00,78.3,76.1,29.97,ESE,103,0.0,0.0,93,0.00,,CLR,0.00,VWS V14.01,2013-08-18 11:16:00,
2013-08-18 07:20:00,78.3,76.1,29.97,ESE,103,0.0,0.0,93,0.00,,CLR,0.00,VWS V14.01,2013-08-18 11:20:00,
2013-08-18 07:25:00,78.3,76.1,29.97,ESE,103,0.0,0.0,93,0.00,,CLR,0.00,VWS V14.01,2013-08-18 11:25:00,
2013-08-18 07:30:00,78.3,76.1,29.97,ESE,103,0.0,0.0,93,0.00,,CLR,0.00,VWS V14.01,2013-08-18 11:30:00,
2013-08-18 07:35:00,78.5,76.3,29.97,ESE,103,0.0,0.0,93,0.00,,CLR,0.00,VWS V14.01,2013-08-18 11:35:00,
2013-08-18 07:40:00,78.5,76.3,29.97,ESE,103,0.0,0.0,93,0.00,,CLR,0.00,VWS V14.01,2013-08-18 11:40:00,
2013-08-18 07:45:00,78.5,76.3,29.97,ESE,103,0.0,0.0,93,0.00,,CLR,0.00,VWS V14.01,2013-08-18 11:45:00,
2013-08-18 07:50:00,78.6,76.4,29.97,ESE,103,0.0,0.0,93,0.00,,CLR,0.00,VWS V14.01,2013-08-18 11:50:00,
2013-08-18 07:55:00,79.0,76.8,29.97,ESE,103,0.0,0.0,93,0.00,,CLR,0.00,VWS V14.01,2013-08-18 11:55:00,
2013-08-18 08:00:00,79.4,77.2,29.97,ESE,103,0.0,0.0,93,0.00,,CLR,0.00,VWS V14.01,2013-08-18 12:00:00,
2013-08-18 08:05:00,79.8,77.3,29.97,ESE,103,0.0,0.0,92,0.00,,CLR,0.00,VWS V14.01,2013-08-18 12:05:00,
2013-08-18 08:10:00,80.1,77.6,29.97,ESE,103,0.0,1.0,92,0.00,,CLR,0.00,VWS V14.01,2013-08-18 12:10:00,
2013-08-18 08:15:00,80.3,77.4,29.98,ESE,106,0.0,3.0,91,0.00,,CLR,0.00,VWS V14.01,2013-08-18 12:15:00,
2013-08-18 08:20:00,80.7,77.5,29.98,ESE,102,0.0,6.0,90,0.00,,CLR,0.00,VWS V14.01,2013-08-18 12:20:00,
2013-08-18 08:25:00,81.1,77.6,29.98,ESE,103,0.0,6.0,89,0.00,,CLR,0.00,VWS V14.01,2013-08-18 12:25:00,
2013-08-18 08:30:00,81.4,77.8,29.97,ESE,104,0.0,6.0,89,0.00,,CLR,0.00,VWS V14.01,2013-08-18 12:30:00,
2013-08-18 08:35:00,81.4,77.5,29.97,ESE,103,0.0,5.0,88,0.00,,CLR,0.00,VWS V14.01,2013-08-18 12:35:00,
2013-08-18 08:40:00,81.8,77.9,29.97,ESE,113,0.0,5.0,88,0.01,,CLR,0.01,VWS V14.01,2013-08-18 12:40:00,
2013-08-18 08:45:00,82.0,78.1,29.98,SE,136,0.0,5.0,88,0.01,,CLR,0.01,VWS V14.01,2013-08-18 12:45:00,
2013-08-18 08:50:00,82.2,77.6,29.98,ESE,103,0.0,7.0,86,0.01,,CLR,0.01,VWS V14.01,2013-08-18 12:50:00,
2013-08-18 08:55:00,82.4,77.8,29.98,ESE,102,0.0,7.0,86,0.01,,CLR,0.01,VWS V14.01,2013-08-18 12:55:00,
2013-08-18 09:00:00,82.8,77.8,29.99,East,100,0.0,7.0,85,0.01,,CLR,0.01,VWS V14.01,2013-08-18 13:00:00,
2013-08-18 09:05:00,83.0,77.3,29.99,East,96,0.0,8.0,83,0.01,,CLR,0.01,VWS V14.01,2013-08-18 13:05:00,
2013-08-18 09:10:00,83.4,77.3,29.99,ESE,110,0.0,8.0,82,0.01,,CLR,0.01,VWS V14.01,2013-08-18 13:10:00,
2013-08-18 09:15:00,83.6,77.2,29.99,East,95,0.0,8.0,81,0.01,,CLR,0.01,VWS V14.01,2013-08-18 13:15:00,
2013-08-18 09:20:00,84.0,77.2,29.99,ESE,119,0.0,8.0,80,0.01,,CLR,0.01,VWS V14.01,2013-08-18 13:20:00,
2013-08-18 09:25:00,84.5,77.3,29.99,ESE,117,0.0,8.0,79,0.01,,CLR,0.01,VWS V14.01,2013-08-18 13:25:00,
2013-08-18 09:30:00,85.1,77.5,29.99,ESE,117,0.0,8.0,78,0.01,,CLR,0.01,VWS V14.01,2013-08-18 13:30:00,
2013-08-18 09:35:00,85.1,76.7,29.99,SE,128,0.0,4.0,76,0.01,,CLR,0.01,VWS V14.01,2013-08-18 13:35:00,
2013-08-18 09:40:00,85.1,76.3,29.99,SSE,167,5.0,5.0,75,0.01,,CLR,0.01,VWS V14.01,2013-08-18 13:40:00,
2013-08-18 09:45:00,85.1,76.3,29.99,ESE,112,0.0,10.0,75,0.01,,CLR,0.01,VWS V14.01,2013-08-18 13:45:00,
2013-08-18 09:50:00,85.1,75.9,29.99,East,97,0.0,10.0,74,0.01,,CLR,0.01,VWS V14.01,2013-08-18 13:50:00,
2013-08-18 09:55:00,85.3,75.7,29.99,SE,136,0.0,10.0,73,0.01,,CLR,0.01,VWS V14.01,2013-08-18 13:55:00,
2013-08-18 10:00:00,85.3,75.2,30.00,ESE,104,0.0,10.0,72,0.01,,SCT010,0.01,VWS V14.01,2013-08-18 14:00:00,
2013-08-18 10:05:00,85.5,75.9,30.00,East,99,0.0,6.0,73,0.00,,SCT010,0.01,VWS V14.01,2013-08-18 14:05:00,
2013-08-18 10:10:00,85.7,75.6,30.00,East,96,0.0,9.0,72,0.00,,SCT010,0.01,VWS V14.01,2013-08-18 14:10:00,
2013-08-18 10:15:00,85.9,75.8,29.99,East,99,0.0,9.0,72,0.00,,SCT010,0.01,VWS V14.01,2013-08-18 14:15:00,
2013-08-18 10:20:00,85.9,75.8,29.99,ESE,112,0.0,9.0,72,0.00,,SCT010,0.01,VWS V14.01,2013-08-18 14:20:00,
2013-08-18 10:25:00,86.1,75.2,29.99,South,172,0.0,9.0,70,0.00,,SCT010,0.01,VWS V14.01,2013-08-18 14:25:00,
2013-08-18 10:30:00,86.5,75.1,30.00,SSE,158,0.0,9.0,69,0.00,,SCT010,0.01,VWS V14.01,2013-08-18 14:30:00,
2013-08-18 10:35:00,87.2,75.8,30.00,SE,130,0.0,2.0,69,0.00,,SCT010,0.01,VWS V14.01,2013-08-18 14:35:00,
2013-08-18 10:40:00,87.4,75.6,30.00,SSE,147,0.0,3.0,68,0.00,,SCT010,0.01,VWS V14.01,2013-08-18 14:40:00,
2013-08-18 10:45:00,87.4,75.1,30.00,ESE,114,0.0,7.0,67,0.00,,SCT010,0.01,VWS V14.01,2013-08-18 14:45:00,
2013-08-18 10:50:00,87.4,75.6,30.00,ESE,103,4.0,7.0,68,0.00,,SCT010,0.01,VWS V14.01,2013-08-18 14:50:00,
2013-08-18 10:55:00,87.8,75.0,30.00,ESE,110,1.0,7.0,66,0.00,,SCT010,0.01,VWS V14.01,2013-08-18 14:55:00,
2013-08-18 11:00:00,87.4,74.7,30.00,East,83,1.0,8.0,66,0.00,,FEW018,0.01,VWS V14.01,2013-08-18 15:00:00,
2013-08-18 11:05:00,87.6,74.4,30.00,East,79,4.0,12.0,65,0.00,,FEW018,0.01,VWS V14.01,2013-08-18 15:05:00,
2013-08-18 11:10:00,87.4,74.2,30.00,East,93,0.0,12.0,65,0.00,,FEW018,0.01,VWS V14.01,2013-08-18 15:10:00,
2013-08-18 11:15:00,87.8,74.6,30.00,South,171,0.0,12.0,65,0.00,,FEW018,0.01,VWS V14.01,2013-08-18 15:15:00,
2013-08-18 11:20:00,88.0,74.8,30.00,ESE,104,0.0,12.0,65,0.00,,FEW018,0.01,VWS V14.01,2013-08-18 15:20:00,
2013-08-18 11:25:00,88.2,74.5,30.00,ESE,110,0.0,12.0,64,0.00,,FEW018,0.01,VWS V14.01,2013-08-18 15:25:00,
2013-08-18 11:30:00,88.6,73.9,30.00,ESE,114,0.0,12.0,62,0.00,,FEW018,0.01,VWS V14.01,2013-08-18 15:30:00,
2013-08-18 11:35:00,88.6,73.9,30.00,East,99,3.0,10.0,62,0.00,,FEW018,0.01,VWS V14.01,2013-08-18 15:35:00,
2013-08-18 11:40:00,88.4,74.2,30.00,ESE,116,0.0,10.0,63,0.00,,FEW018,0.01,VWS V14.01,2013-08-18 15:40:00,
2013-08-18 11:45:00,88.6,74.9,30.00,ESE,110,7.0,10.0,64,0.00,,FEW018,0.01,VWS V14.01,2013-08-18 15:45:00,
2013-08-18 11:50:00,88.6,73.9,30.00,SE,126,0.0,10.0,62,0.00,,FEW018,0.01,VWS V14.01,2013-08-18 15:50:00,
2013-08-18 11:55:00,88.6,72.4,30.00,East,90,2.0,13.0,59,0.00,,FEW018,0.01,VWS V14.01,2013-08-18 15:55:00,
2013-08-18 12:00:00,89.0,72.8,30.00,ESE,107,1.0,13.0,59,0.00,,SCT020,0.01,VWS V14.01,2013-08-18 16:00:00,
2013-08-18 12:05:00,89.3,73.1,30.00,ESE,114,0.0,0.0,59,0.00,,SCT020,0.01,VWS V14.01,2013-08-18 16:05:00,
2013-08-18 12:10:00,90.1,73.8,30.00,SE,127,0.0,6.0,59,0.00,,SCT020,0.01,VWS V14.01,2013-08-18 16:10:00,
2013-08-18 12:15:00,89.9,71.6,30.00,SSE,164,2.0,6.0,55,0.00,,SCT020,0.01,VWS V14.01,2013-08-18 16:15:00,
2013-08-18 12:20:00,90.1,72.3,30.00,ESE,102,5.0,7.0,56,0.00,,SCT020,0.01,VWS V14.01,2013-08-18 16:20:00,
2013-08-18 12:25:00,90.1,72.8,30.00,ESE,102,0.0,8.0,57,0.00,,SCT020,0.01,VWS V14.01,2013-08-18 16:25:00,
2013-08-18 12:30:00,90.5,72.7,30.00,East,90,0.0,8.0,56,0.00,,SCT020,0.01,VWS V14.01,2013-08-18 16:30:00,
2013-08-18 12:35:00,91.2,73.3,30.00,ESE,117,0.0,5.0,56,0.00,,SCT020,0.01,VWS V14.01,2013-08-18 16:35:00,
2013-08-18 12:40:00,91.4,71.9,30.00,ESE,121,0.0,6.0,53,0.00,,SCT020,0.01,VWS V14.01,2013-08-18 16:40:00,
2013-08-18 12:45:00,91.0,72.6,29.99,ESE,119,0.0,8.0,55,0.00,,SCT020,0.01,VWS V14.01,2013-08-18 16:45:00,
2013-08-18 12:50:00,90.3,71.9,29.99,East,93,0.0,12.0,55,0.00,,SCT020,0.01,VWS V14.01,2013-08-18 16:50:00,
2013-08-18 12:55:00,90.5,72.7,29.99,ESE,110,0.0,12.0,56,0.00,,SCT020,0.01,VWS V14.01,2013-08-18 16:55:00,
2013-08-18 13:00:00,91.0,73.1,29.99,SE,128,2.0,12.0,56,0.00,,BKN035,0.01,VWS V14.01,2013-08-18 17:00:00,
2013-08-18 13:05:00,91.0,72.6,29.99,ESE,103,0.0,8.0,55,0.00,,BKN035,0.01,VWS V14.01,2013-08-18 17:05:00,
2013-08-18 13:10:00,91.8,72.8,29.99,SE,141,0.0,8.0,54,0.00,,BKN035,0.01,VWS V14.01,2013-08-18 17:10:00,
2013-08-18 13:15:00,92.1,72.0,29.98,ESE,112,0.0,8.0,52,0.00,,BKN035,0.01,VWS V14.01,2013-08-18 17:15:00,
2013-08-18 13:20:00,92.3,72.1,29.98,SE,130,1.0,8.0,52,0.00,,BKN035,0.01,VWS V14.01,2013-08-18 17:20:00,
2013-08-18 13:25:00,92.3,71.6,29.98,SE,126,0.0,8.0,51,0.00,,BKN035,0.01,VWS V14.01,2013-08-18 17:25:00,
2013-08-18 13:30:00,92.7,71.9,29.98,ENE,73,0.0,8.0,51,0.00,,BKN035,0.01,VWS V14.01,2013-08-18 17:30:00,
2013-08-18 13:35:00,92.7,71.9,29.98,ESE,116,0.0,6.0,51,0.00,,BKN035,0.01,VWS V14.01,2013-08-18 17:35:00,
2013-08-18 13:40:00,92.1,71.4,29.98,ESE,109,1.0,7.0,51,0.00,,BKN035,0.01,VWS V14.01,2013-08-18 17:40:00,
2013-08-18 13:45:00,90.7,71.8,29.97,East,89,0.0,8.0,54,0.00,,BKN035,0.01,VWS V14.01,2013-08-18 17:45:00,
2013-08-18 13:50:00,90.5,71.6,29.97,ENE,75,7.0,8.0,54,0.00,,BKN035,0.01,VWS V14.01,2013-08-18 17:50:00,
2013-08-18 13:55:00,90.1,71.8,29.97,SE,126,0.0,8.0,55,0.00,,BKN035,0.01,VWS V14.01,2013-08-18 17:55:00,
2013-08-18 14:00:00,90.1,71.8,29.97,SSE,150,0.0,8.0,55,0.00,,BKN070,0.01,VWS V14.01,2013-08-18 18:00:00,
2013-08-18 14:05:00,90.3,73.0,29.97,SSE,150,0.0,0.0,57,0.00,,BKN070,0.01,VWS V14.01,2013-08-18 18:05:00,
2013-08-18 14:10:00,90.5,72.1,29.97,SSE,150,0.0,0.0,55,0.00,,BKN070,0.01,VWS V14.01,2013-08-18 18:10:00,
2013-08-18 14:15:00,91.0,72.6,29.97,SSE,150,0.0,0.0,55,0.00,,BKN070,0.01,VWS V14.01,2013-08-18 18:15:00,
2013-08-18 14:20:00,91.2,72.2,29.97,ESE,117,0.0,2.0,54,0.00,,BKN070,0.01,VWS V14.01,2013-08-18 18:20:00,
2013-08-18 14:25:00,90.5,72.7,29.97,ESE,106,0.0,8.0,56,0.00,,BKN070,0.01,VWS V14.01,2013-08-18 18:25:00,
2013-08-18 14:30:00,90.1,73.3,29.97,East,90,0.0,8.0,58,0.00,,BKN070,0.01,VWS V14.01,2013-08-18 18:30:00,
2013-08-18 14:35:00,89.9,72.1,29.97,East,99,0.0,2.0,56,0.00,,BKN070,0.01,VWS V14.01,2013-08-18 18:35:00,
2013-08-18 14:40:00,90.1,72.3,29.97,ESE,121,2.0,5.0,56,0.00,,BKN070,0.01,VWS V14.01,2013-08-18 18:40:00,
2013-08-18 14:45:00,91.4,73.0,29.97,SE,136,0.0,5.0,55,0.00,,BKN070,0.01,VWS V14.01,2013-08-18 18:45:00,
2013-08-18 14:50:00,91.8,73.3,29.97,SE,136,0.0,5.0,55,0.00,,BKN070,0.01,VWS V14.01,2013-08-18 18:50:00,
2013-08-18 14:55:00,91.6,73.7,29.97,SE,137,0.0,5.0,56,0.00,,BKN070,0.01,VWS V14.01,2013-08-18 18:55:00,
2013-08-18 15:00:00,91.6,73.7,29.96,SE,137,0.0,5.0,56,0.00,,SCT042,0.01,VWS V14.01,2013-08-18 19:00:00,
2013-08-18 15:05:00,92.1,74.7,29.96,SE,138,0.0,0.0,57,0.00,,SCT042,0.01,VWS V14.01,2013-08-18 19:05:00,
2013-08-18 15:10:00,91.8,73.9,29.96,SSW,198,2.0,5.0,56,0.00,,SCT042,0.01,VWS V14.01,2013-08-18 19:10:00,
2013-08-18 15:15:00,91.0,74.2,29.94,SSW,193,0.0,5.0,58,0.00,,SCT042,0.01,VWS V14.01,2013-08-18 19:15:00,
2013-08-18 15:20:00,90.7,75.4,29.94,SSW,193,0.0,5.0,61,0.00,,SCT042,0.01,VWS V14.01,2013-08-18 19:20:00,
2013-08-18 15:25:00,90.3,75.5,29.94,SSW,195,0.0,5.0,62,0.00,,SCT042,0.01,VWS V14.01,2013-08-18 19:25:00,
2013-08-18 15:30:00,89.7,75.4,29.95,SSW,195,0.0,5.0,63,0.00,,SCT042,0.01,VWS V14.01,2013-08-18 19:30:00,
2013-08-18 15:35:00,88.6,73.9,29.95,ESE,113,0.0,16.0,62,0.00,,SCT042,0.01,VWS V14.01,2013-08-18 19:35:00,
2013-08-18 15:40:00,87.6,73.5,29.95,SSE,162,0.0,16.0,63,0.00,,SCT042,0.01,VWS V14.01,2013-08-18 19:40:00,
2013-08-18 15:45:00,87.4,73.7,29.94,South,171,0.0,16.0,64,0.00,,SCT042,0.01,VWS V14.01,2013-08-18 19:45:00,
2013-08-18 15:50:00,87.2,73.6,29.94,SE,126,0.0,16.0,64,0.00,,SCT042,0.01,VWS V14.01,2013-08-18 19:50:00,
2013-08-18 15:55:00,86.7,72.1,29.94,ESE,104,0.0,16.0,62,0.00,,SCT042,0.01,VWS V14.01,2013-08-18 19:55:00,
2013-08-18 16:00:00,86.5,72.9,29.94,South,191,7.0,16.0,64,0.00,,BKN055,0.01,VWS V14.01,2013-08-18 20:00:00,
2013-08-18 16:05:00,85.3,75.2,29.95,SSW,206,2.0,10.0,72,0.00,,BKN055,0.01,VWS V14.01,2013-08-18 20:05:00,
2013-08-18 16:10:00,84.0,74.4,29.95,WSW,247,0.0,10.0,73,0.00,,BKN055,0.01,VWS V14.01,2013-08-18 20:10:00,
2013-08-18 16:15:00,82.8,74.5,29.95,West,263,0.0,11.0,76,0.00,,BKN055,0.01,VWS V14.01,2013-08-18 20:15:00,
2013-08-18 16:20:00,82.4,74.9,29.95,West,268,2.0,11.0,78,0.00,,BKN055,0.01,VWS V14.01,2013-08-18 20:20:00,
2013-08-18 16:25:00,81.8,73.9,29.95,West,275,8.0,11.0,77,0.00,,BKN055,0.01,VWS V14.01,2013-08-18 20:25:00,
2013-08-18 16:30:00,81.2,73.7,29.95,West,274,2.0,11.0,78,0.00,,BKN055,0.01,VWS V14.01,2013-08-18 20:30:00,
2013-08-18 16:35:00,81.2,74.4,29.95,West,274,0.0,6.0,80,0.00,,BKN055,0.01,VWS V14.01,2013-08-18 20:35:00,
2013-08-18 16:40:00,81.1,74.0,29.95,West,277,0.0,6.0,79,0.00,,BKN055,0.01,VWS V14.01,2013-08-18 20:40:00,
2013-08-18 16:45:00,81.4,74.6,29.95,West,277,0.0,6.0,80,0.00,,BKN055,0.01,VWS V14.01,2013-08-18 20:45:00,
2013-08-18 16:50:00,81.4,74.3,29.96,West,277,0.0,6.0,79,0.00,,BKN055,0.01,VWS V14.01,2013-08-18 20:50:00,
2013-08-18 16:55:00,81.4,74.3,29.96,West,277,0.0,6.0,79,0.00,,BKN055,0.01,VWS V14.01,2013-08-18 20:55:00,
2013-08-18 17:00:00,81.4,73.9,29.96,West,277,0.0,6.0,78,0.00,,OVC090,0.01,VWS V14.01,2013-08-18 21:00:00,
2013-08-18 17:05:00,81.8,74.3,29.96,West,278,0.0,0.0,78,0.00,,OVC090,0.01,VWS V14.01,2013-08-18 21:05:00,
2013-08-18 17:10:00,82.2,74.3,29.96,West,278,0.0,0.0,77,0.00,,OVC090,0.01,VWS V14.01,2013-08-18 21:10:00,
2013-08-18 17:15:00,82.6,74.7,29.96,West,278,0.0,0.0,77,0.00,,OVC090,0.01,VWS V14.01,2013-08-18 21:15:00,
2013-08-18 17:20:00,82.8,74.1,29.96,West,278,0.0,0.0,75,0.00,,OVC090,0.01,VWS V14.01,2013-08-18 21:20:00,
2013-08-18 17:25:00,82.8,74.5,29.96,West,278,0.0,0.0,76,0.00,,OVC090,0.01,VWS V14.01,2013-08-18 21:25:00,
2013-08-18 17:30:00,83.0,74.7,29.96,West,278,0.0,0.0,76,0.00,,OVC090,0.01,VWS V14.01,2013-08-18 21:30:00,
2013-08-18 17:35:00,83.2,74.8,29.96,West,278,0.0,0.0,76,0.00,,OVC090,0.01,VWS V14.01,2013-08-18 21:35:00,
2013-08-18 17:40:00,83.2,74.1,29.96,West,278,0.0,0.0,74,0.00,,OVC090,0.01,VWS V14.01,2013-08-18 21:40:00,
2013-08-18 17:45:00,83.2,74.5,29.96,West,278,0.0,0.0,75,0.00,,OVC090,0.01,VWS V14.01,2013-08-18 21:45:00,
2013-08-18 17:50:00,83.2,74.8,29.97,West,278,0.0,0.0,76,0.00,,OVC090,0.01,VWS V14.01,2013-08-18 21:50:00,
2013-08-18 17:55:00,83.2,74.8,29.97,West,278,0.0,0.0,76,0.00,,OVC090,0.01,VWS V14.01,2013-08-18 21:55:00,
2013-08-18 18:00:00,83.2,75.2,29.97,West,280,0.0,0.0,77,0.00,,OVC090,0.01,VWS V14.01,2013-08-18 22:00:00,
2013-08-18 18:05:00,83.0,75.4,29.97,North,0,0.0,2.0,78,0.00,,OVC100,0.01,VWS V14.01,2013-08-18 22:05:00,
2013-08-18 18:10:00,82.6,75.1,29.97,North,10,0.0,2.0,78,0.00,,OVC100,0.01,VWS V14.01,2013-08-18 22:10:00,
2013-08-18 18:15:00,82.4,74.9,29.97,North,10,0.0,2.0,78,0.00,,OVC100,0.01,VWS V14.01,2013-08-18 22:15:00,
2013-08-18 18:20:00,82.0,74.5,29.97,NNE,16,0.0,2.0,78,0.00,,OVC100,0.01,VWS V14.01,2013-08-18 22:20:00,
2013-08-18 18:25:00,81.8,74.3,29.97,NNE,16,0.0,2.0,78,0.00,,OVC100,0.01,VWS V14.01,2013-08-18 22:25:00,
2013-08-18 18:30:00,81.8,74.3,29.97,NNE,16,0.0,2.0,78,0.00,,OVC100,0.01,VWS V14.01,2013-08-18 22:30:00,
2013-08-18 18:35:00,81.8,74.3,29.97,NNE,16,0.0,0.0,78,0.00,,OVC100,0.01,VWS V14.01,2013-08-18 22:35:00,
2013-08-18 18:40:00,81.8,74.3,29.97,NNE,16,0.0,0.0,78,0.00,,OVC100,0.01,VWS V14.01,2013-08-18 22:40:00,
2013-08-18 18:45:00,81.6,74.8,29.97,NNE,17,0.0,0.0,80,0.00,,OVC100,0.01,VWS V14.01,2013-08-18 22:45:00,
2013-08-18 18:50:00,81.4,75.0,29.97,ENE,68,0.0,0.0,81,0.00,,OVC100,0.01,VWS V14.01,2013-08-18 22:50:00,
2013-08-18 18:55:00,81.1,75.4,29.97,ENE,73,0.0,1.0,83,0.01,,OVC100,0.02,VWS V14.01,2013-08-18 22:55:00,
2013-08-18 19:00:00,80.1,74.8,29.97,East,90,1.0,5.0,84,0.01,,-RA,0.02,VWS V14.01,2013-08-18 23:00:00,
2013-08-18 19:05:00,79.6,75.1,29.97,East,92,0.0,0.0,86,0.01,,-RA,0.02,VWS V14.01,2013-08-18 23:05:00,
2013-08-18 19:10:00,79.2,75.3,29.97,East,92,0.0,0.0,88,0.01,,-RA,0.02,VWS V14.01,2013-08-18 23:10:00,
2013-08-18 19:15:00,78.8,74.9,29.97,East,92,0.0,1.0,88,0.02,,-RA,0.03,VWS V14.01,2013-08-18 23:15:00,
2013-08-18 19:20:00,78.6,75.1,29.97,East,92,0.0,2.0,89,0.02,,-RA,0.03,VWS V14.01,2013-08-18 23:20:00,
2013-08-18 19:25:00,78.3,75.1,29.97,ESE,109,2.0,7.0,90,0.03,,-RA,0.04,VWS V14.01,2013-08-18 23:25:00,
2013-08-18 19:30:00,78.1,74.9,29.97,ESE,119,0.0,7.0,90,0.03,,-RA,0.04,VWS V14.01,2013-08-18 23:30:00,
2013-08-18 19:35:00,77.6,74.8,29.99,ESE,112,0.0,6.0,91,0.03,,-RA,0.04,VWS V14.01,2013-08-18 23:35:00,
2013-08-18 19:40:00,77.6,74.8,29.99,ESE,107,0.0,6.0,91,0.03,,-RA,0.04,VWS V14.01,2013-08-18 23:40:00,
2013-08-18 19:45:00,77.4,74.9,29.99,SSE,152,0.0,6.0,92,0.04,,-RA,0.05,VWS V14.01,2013-08-18 23:45:00,
2013-08-18 19:50:00,77.4,74.9,30.00,ESE,106,0.0,6.0,92,0.05,,-RA,0.06,VWS V14.01,2013-08-18 23:50:00,
2013-08-18 19:55:00,77.2,74.7,30.00,SSE,150,0.0,6.0,92,0.05,,-RA,0.06,VWS V14.01,2013-08-18 23:55:00,
2013-08-18 20:00:00,77.2,74.7,30.00,South,179,0.0,6.0,92,0.05,,OVC090,0.06,VWS V14.01,2013-08-19 00:00:00,
2013-08-18 20:05:00,76.8,74.3,30.00,SSE,162,0.0,3.0,92,0.04,,OVC090,0.06,VWS V14.01,2013-08-19 00:05:00,
2013-08-18 20:10:00,76.7,74.5,30.00,SSE,160,0.0,3.0,93,0.06,,OVC090,0.08,VWS V14.01,2013-08-19 00:10:00,
2013-08-18 20:15:00,76.7,74.5,30.00,SSE,161,0.0,3.0,93,0.08,,OVC090,0.10,VWS V14.01,2013-08-19 00:15:00,
2013-08-18 20:20:00,76.5,74.3,30.01,SSE,161,0.0,3.0,93,0.10,,OVC090,0.12,VWS V14.01,2013-08-19 00:20:00,
2013-08-18 20:25:00,76.5,74.3,30.01,SSE,161,0.0,3.0,93,0.10,,OVC090,0.12,VWS V14.01,2013-08-19 00:25:00,
2013-08-18 20:30:00,76.5,74.7,30.01,SSE,161,0.0,3.0,94,0.10,,OVC090,0.12,VWS V14.01,2013-08-19 00:30:00,
2013-08-18 20:35:00,76.5,74.7,30.00,SSE,161,0.0,0.0,94,0.08,,OVC090,0.12,VWS V14.01,2013-08-19 00:35:00,
2013-08-18 20:40:00,76.5,74.7,30.00,SSE,161,0.0,0.0,94,0.08,,OVC090,0.12,VWS V14.01,2013-08-19 00:40:00,
2013-08-18 20:45:00,76.5,74.7,30.00,SSE,161,0.0,0.0,94,0.08,,OVC090,0.12,VWS V14.01,2013-08-19 00:45:00,
2013-08-18 20:50:00,76.5,74.7,30.00,SSE,161,0.0,0.0,94,0.08,,OVC090,0.12,VWS V14.01,2013-08-19 00:50:00,
2013-08-18 20:55:00,76.5,74.7,30.00,SSE,161,0.0,0.0,94,0.08,,OVC090,0.12,VWS V14.01,2013-08-19 00:55:00,
2013-08-18 21:00:00,76.5,74.7,30.00,SSE,161,0.0,0.0,94,0.08,,-RA,0.12,VWS V14.01,2013-08-19 01:00:00,
2013-08-18 21:05:00,76.5,74.7,30.00,SSE,161,0.0,0.0,94,0.06,,-RA,0.12,VWS V14.01,2013-08-19 01:05:00,
2013-08-18 21:10:00,76.7,75.2,30.00,SSE,161,0.0,0.0,95,0.06,,-RA,0.12,VWS V14.01,2013-08-19 01:10:00,
2013-08-18 21:15:00,76.5,75.0,29.99,SSE,161,0.0,0.0,95,0.06,,-RA,0.12,VWS V14.01,2013-08-19 01:15:00,
2013-08-18 21:20:00,76.5,75.0,29.99,SSE,161,0.0,0.0,95,0.06,,-RA,0.12,VWS V14.01,2013-08-19 01:20:00,
2013-08-18 21:25:00,76.5,75.0,29.99,SSE,157,0.0,0.0,95,0.06,,-RA,0.12,VWS V14.01,2013-08-19 01:25:00,
2013-08-18 21:30:00,76.3,74.8,29.99,SSE,157,0.0,0.0,95,0.06,,-RA,0.12,VWS V14.01,2013-08-19 01:30:00,
2013-08-18 21:35:00,76.3,74.8,29.99,SSE,157,0.0,0.0,95,0.00,,-RA,0.12,VWS V14.01,2013-08-19 01:35:00,
2013-08-18 21:40:00,76.3,74.8,29.99,SSE,157,0.0,0.0,95,0.00,,-RA,0.12,VWS V14.01,2013-08-19 01:40:00,
2013-08-18 21:45:00,76.1,74.6,29.99,SSE,157,0.0,0.0,95,0.00,,-RA,0.12,VWS V14.01,2013-08-19 01:45:00,
2013-08-18 21:50:00,76.1,74.6,29.99,SSE,157,0.0,0.0,95,0.00,,-RA,0.12,VWS V14.01,2013-08-19 01:50:00,
2013-08-18 21:55:00,76.1,74.6,29.99,SSE,157,0.0,0.0,95,0.00,,-RA,0.12,VWS V14.01,2013-08-19 01:55:00,
2013-08-18 22:00:00,76.0,74.5,30.00,SSE,157,0.0,0.0,95,0.00,,-RA,0.12,VWS V14.01,2013-08-19 02:00:00,
2013-08-18 22:05:00,76.0,74.5,30.00,SSE,157,0.0,0.0,95,0.00,,-RA,0.12,VWS V14.01,2013-08-19 02:05:00,
2013-08-18 22:10:00,76.0,74.5,30.00,SSE,157,0.0,0.0,95,0.00,,-RA,0.12,VWS V14.01,2013-08-19 02:10:00,
2013-08-18 22:15:00,76.0,74.5,30.00,SSE,157,0.0,0.0,95,0.00,,-RA,0.12,VWS V14.01,2013-08-19 02:15:00,
2013-08-18 22:20:00,76.0,74.8,30.00,SSE,157,0.0,0.0,96,0.00,,-RA,0.12,VWS V14.01,2013-08-19 02:20:00,
2013-08-18 22:25:00,75.8,74.3,30.00,SSE,157,0.0,0.0,95,0.00,,-RA,0.12,VWS V14.01,2013-08-19 02:25:00,
2013-08-18 22:30:00,75.8,74.6,30.01,SSE,157,0.0,0.0,96,0.00,,-RA,0.12,VWS V14.01,2013-08-19 02:30:00,
2013-08-18 22:35:00,75.8,74.6,30.01,SSE,157,0.0,0.0,96,0.00,,-RA,0.12,VWS V14.01,2013-08-19 02:35:00,
2013-08-18 22:40:00,76.0,74.8,30.01,SSE,157,0.0,0.0,96,0.00,,-RA,0.12,VWS V14.01,2013-08-19 02:40:00,
2013-08-18 22:45:00,76.0,74.8,30.02,SSE,157,0.0,0.0,96,0.00,,-RA,0.12,VWS V14.01,2013-08-19 02:45:00,
2013-08-18 22:50:00,76.0,74.8,30.02,SSE,157,0.0,0.0,96,0.00,,-RA,0.12,VWS V14.01,2013-08-19 02:50:00,
2013-08-18 22:55:00,76.1,74.9,30.02,SSE,155,0.0,1.0,96,0.00,,-RA,0.12,VWS V14.01,2013-08-19 02:55:00,
2013-08-18 23:00:00,76.1,74.9,30.03,SSE,155,0.0,1.0,96,0.00,,SCT110,0.12,VWS V14.01,2013-08-19 03:00:00,
2013-08-18 23:05:00,76.1,74.9,30.03,South,182,0.0,5.0,96,0.00,,SCT110,0.12,VWS V14.01,2013-08-19 03:05:00,
2013-08-18 23:10:00,76.1,74.9,30.03,South,182,0.0,5.0,96,0.00,,SCT110,0.12,VWS V14.01,2013-08-19 03:10:00,
2013-08-18 23:15:00,76.1,74.9,30.02,South,182,0.0,5.0,96,0.00,,SCT110,0.12,VWS V14.01,2013-08-19 03:15:00,
2013-08-18 23:20:00,76.1,74.9,30.02,South,182,0.0,5.0,96,0.00,,SCT110,0.12,VWS V14.01,2013-08-19 03:20:00,
2013-08-18 23:25:00,76.0,74.8,30.02,South,182,0.0,5.0,96,0.00,,SCT110,0.12,VWS V14.01,2013-08-19 03:25:00,
2013-08-18 23:30:00,76.0,74.8,30.01,South,182,0.0,5.0,96,0.00,,SCT110,0.12,VWS V14.01,2013-08-19 03:30:00,
2013-08-18 23:35:00,76.0,74.8,30.01,South,182,0.0,0.0,96,0.00,,SCT110,0.12,VWS V14.01,2013-08-19 03:35:00,
2013-08-18 23:40:00,76.1,74.9,30.01,South,182,0.0,0.0,96,0.00,,SCT110,0.12,VWS V14.01,2013-08-19 03:40:00,
2013-08-18 23:45:00,76.0,74.8,30.00,South,182,0.0,0.0,96,0.00,,SCT110,0.12,VWS V14.01,2013-08-19 03:45:00,
2013-08-18 23:50:00,76.0,74.8,30.00,South,182,0.0,0.0,96,0.00,,SCT110,0.12,VWS V14.01,2013-08-19 03:50:00,
2013-08-18 23:55:00,76.0,74.8,30.00,South,182,0.0,0.0,96,0.00,,SCT110,0.12,VWS V14.01,2013-08-19 03:55:00,